Oskaloosa, IA

8:09 AM CDT on June 25, 2017 (GMT -0500)
Oskaloosa Municipal

Weather History for KOOA - December, 2012

Change the Weather History Date:

Friday, December 14, 2012

  Actual Average (KOTM) Record (KOTM)
Temperature  
Mean Temperature 40 °F -  
Max Temperature 54 °F 35 °F 61 °F (2008)
Min Temperature 25 °F 19 °F -10 °F (1985)
Degree Days  
Heating Degree Days 26    
Moisture  
Dew Point 28 °F    
Average Humidity 63    
Maximum Humidity 91    
Minimum Humidity 37    
Precipitation  
Precipitation 0.27 in - - ()
Sea Level Pressure  
Sea Level Pressure 30.00 in    
Wind  
Wind Speed 8 mph (SSE)    
Max Wind Speed 18 mph    
Max Gust Speed 24 mph    
Visibility 10 miles    
Events Rain    
Averages and records for this station are not official NWS values.
T = Trace of Precipitation, MM = Missing Value Source: NWS Daily Summary

Daily Weather History Graph

Daily Weather History Graph

Search for Another Location

Airport or City:

Trip Planner

Search our weather history database for the weather conditions in past years. The results will help you decide how hot, cold, wet, or windy it might be!

Date:

Astronomy

Dec. 14, 2012 Rise Set
Actual Time 7:28 AM CST 4:41 PM CST
Civil Twilight 6:56 AM CST 5:12 PM CST
Nautical Twilight 6:22 AM CST 5:47 PM CST
Astronomical Twilight 5:48 AM CST 6:21 PM CST
Moon 8:32 AM CST (12/14) 6:35 PM CST (12/14)
Length of Visible Light 10h 15m
Length of Day
9h 13m
Waxing Crescent, 3% of the Moon is Illuminated
Dec 14
Waxing Crescent
Dec 19
First Quarter
Dec 28
Full
Jan 4
Last Quarter
Jan 11
New

Hourly Weather History & Observations

Time (CST) Temp. Windchill Dew Point Humidity Pressure Visibility Wind Dir Wind Speed Gust Speed Precip Events Conditions
12:15 AM 32.9 °F 28.5 °F 21.9 °F 64% 30.11 in 10.0 mi South 4.6 mph - N/A   Clear
12:35 AM 32.4 °F 27.9 °F 22.1 °F 66% 30.11 in 10.0 mi South 4.6 mph - N/A   Clear
12:55 AM 32.0 °F 26.4 °F 21.7 °F 66% 30.11 in 10.0 mi South 5.8 mph - N/A   Clear
1:15 AM 30.7 °F 26.0 °F 21.4 °F 68% 30.10 in 10.0 mi South 4.6 mph - N/A   Clear
1:35 AM 29.7 °F 23.7 °F 20.8 °F 70% 30.11 in 10.0 mi South 5.8 mph - N/A   Clear
1:55 AM 30.4 °F 23.6 °F 21.6 °F 70% 30.11 in 10.0 mi South 6.9 mph - N/A   Clear
2:15 AM 28.4 °F 22.2 °F 20.8 °F 73% 30.11 in 10.0 mi SSE 5.8 mph - N/A   Clear
2:35 AM 30.6 °F - 21.9 °F 70% 30.10 in 10.0 mi Calm Calm - N/A   Clear
2:55 AM 32.0 °F 27.5 °F 22.1 °F 67% 30.11 in 10.0 mi South 4.6 mph - N/A   Clear
3:15 AM 29.8 °F 24.9 °F 21.7 °F 72% 30.11 in 10.0 mi SSE 4.6 mph - N/A   Clear
3:35 AM 28.4 °F 19.7 °F 20.7 °F 73% 30.11 in 10.0 mi SSE 9.2 mph - N/A   Clear
3:55 AM 27.5 °F 20.2 °F 21.9 °F 80% 30.10 in 10.0 mi SSE 6.9 mph - N/A   Clear
4:15 AM 27.5 °F 18.6 °F 21.4 °F 78% 30.09 in 10.0 mi SSE 9.2 mph - N/A   Clear
4:55 AM 27.1 °F 18.9 °F 21.6 °F 80% 30.09 in 10.0 mi SSE 8.1 mph - N/A   Clear
5:15 AM 28.2 °F 22.0 °F 21.9 °F 77% 30.09 in 10.0 mi SSE 5.8 mph - N/A   Clear
5:35 AM 26.4 °F 18.0 °F 21.2 °F 81% 30.09 in 10.0 mi South 8.1 mph - N/A   Clear
5:55 AM 26.1 °F 19.4 °F 21.2 °F 82% 30.09 in 10.0 mi SSE 5.8 mph - N/A   Clear
6:15 AM 28.8 °F 22.6 °F 22.1 °F 76% 30.10 in 10.0 mi South 5.8 mph - N/A   Clear
6:35 AM 28.4 °F 21.2 °F 22.1 °F 77% 30.09 in 10.0 mi SSE 6.9 mph - N/A   Clear
6:55 AM 29.7 °F 22.8 °F 23.0 °F 76% 30.10 in 10.0 mi SSE 6.9 mph - N/A   Clear
7:15 AM 28.8 °F 20.9 °F 22.1 °F 76% 30.10 in 10.0 mi SSE 8.1 mph - N/A   Clear
7:35 AM 25.7 °F 17.1 °F 20.8 °F 82% 30.11 in 10.0 mi SSE 8.1 mph - N/A   Clear
7:55 AM 26.4 °F 18.0 °F 21.9 °F 83% 30.10 in 10.0 mi SSE 8.1 mph - N/A   Clear
8:15 AM 29.5 °F 22.5 °F 24.3 °F 81% 30.10 in 10.0 mi SSE 6.9 mph - N/A   Clear
8:35 AM 32.0 °F 24.8 °F 25.7 °F 78% 30.10 in 10.0 mi SSE 8.1 mph - N/A   Clear
8:55 AM 34.0 °F 28.0 °F 26.6 °F 74% 30.09 in 10.0 mi SE 6.9 mph - N/A   Clear
9:15 AM 36.5 °F 30.3 °F 27.3 °F 69% 30.09 in 10.0 mi SSE 8.1 mph - N/A   Clear
9:35 AM 37.9 °F 32.1 °F 27.7 °F 67% 30.09 in 10.0 mi SSE 8.1 mph - N/A   Clear
9:55 AM 39.9 °F 35.1 °F 28.4 °F 63% 30.08 in 10.0 mi SSE 6.9 mph - N/A   Clear
10:15 AM 42.3 °F 38.6 °F 28.2 °F 58% 30.07 in 10.0 mi South 5.8 mph - N/A   Clear
10:35 AM 43.9 °F 39.3 °F 27.3 °F 52% 30.07 in 10.0 mi South 8.1 mph - N/A   Clear
10:55 AM 45.3 °F 42.3 °F 27.5 °F 50% 30.06 in 10.0 mi SSE 5.8 mph - N/A   Clear
11:15 AM 46.0 °F 41.9 °F 28.0 °F 50% 30.05 in 10.0 mi South 8.1 mph - N/A   Clear
11:35 AM 46.9 °F - 28.2 °F 48% 30.04 in 10.0 mi South 9.2 mph - N/A   Clear
11:55 AM 48.6 °F - 28.4 °F 46% 30.03 in 10.0 mi South 8.1 mph - N/A   Clear
12:15 PM 50.0 °F - 28.4 °F 43% 30.02 in 10.0 mi South 8.1 mph - N/A   Clear
12:35 PM 51.4 °F - 28.4 °F 41% 30.00 in 10.0 mi South 9.2 mph - N/A   Clear
12:55 PM 52.7 °F - 28.6 °F 40% 29.99 in 10.0 mi SSE 10.4 mph - N/A   Clear
1:15 PM 54.0 °F - 28.6 °F 38% 29.99 in 10.0 mi SSE 12.7 mph - N/A   Clear
1:35 PM 53.8 °F - 28.0 °F 37% 29.98 in 10.0 mi SSE 13.8 mph - N/A   Clear
1:55 PM 53.4 °F - 28.6 °F 38% 29.97 in 10.0 mi South 13.8 mph - N/A   Clear
2:15 PM 53.8 °F - 28.6 °F 38% 29.96 in 10.0 mi South 13.8 mph - N/A   Clear
2:35 PM 53.1 °F - 29.3 °F 40% 29.95 in 10.0 mi South 12.7 mph - N/A   Clear
2:55 PM 52.7 °F - 29.8 °F 42% 29.94 in 10.0 mi SSE 11.5 mph - N/A   Clear
3:15 PM 51.8 °F - 30.0 °F 43% 29.93 in 10.0 mi SE 11.5 mph - N/A   Clear
3:35 PM 51.4 °F - 30.2 °F 44% 29.93 in 10.0 mi SE 10.4 mph - N/A   Clear
4:15 PM 50.0 °F - 31.1 °F 48% 29.94 in 10.0 mi SSE 11.5 mph - N/A   Clear
4:35 PM 48.9 °F - 30.6 °F 49% 29.93 in 10.0 mi SSE 11.5 mph - N/A   Clear
4:55 PM 47.7 °F - 30.2 °F 51% 29.92 in 10.0 mi SSE 11.5 mph - N/A   Clear
5:15 PM 47.5 °F - 30.0 °F 51% 29.92 in 10.0 mi SSE 12.7 mph - N/A   Scattered Clouds
5:35 PM 47.5 °F - 30.2 °F 51% 29.92 in 10.0 mi SSE 11.5 mph - N/A   Mostly Cloudy
5:55 PM 48.2 °F - 30.2 °F 50% 29.92 in 10.0 mi SSE 11.5 mph - N/A   Overcast
6:15 PM 48.7 °F - 30.2 °F 49% 29.92 in 10.0 mi SSE 11.5 mph - N/A   Overcast
6:35 PM 49.1 °F - 30.0 °F 48% 29.92 in 10.0 mi SSE 11.5 mph - N/A   Overcast
6:55 PM 49.5 °F - 29.7 °F 47% 29.92 in 10.0 mi SSE 12.7 mph - N/A   Overcast
7:15 PM 49.6 °F - 29.8 °F 47% 29.92 in 10.0 mi SSE 12.7 mph - N/A   Overcast
7:35 PM 49.3 °F - 30.2 °F 48% 29.91 in 10.0 mi SSE 11.5 mph - N/A   Overcast
7:55 PM 49.5 °F - 30.2 °F 48% 29.91 in 10.0 mi SSE 12.7 mph - N/A   Overcast
8:15 PM 49.5 °F - 31.3 °F 50% 29.91 in 10.0 mi SSE 15.0 mph - N/A   Overcast
8:35 PM 49.3 °F - 32.0 °F 51% 29.90 in 10.0 mi SSE 13.8 mph - N/A   Overcast
8:55 PM 48.7 °F - 36.3 °F 62% 29.89 in 10.0 mi SSE 18.4 mph 24.2 mph N/A   Overcast
9:15 PM 47.8 °F - 38.5 °F 70% 29.89 in 10.0 mi South 16.1 mph - N/A   Overcast
9:35 PM 46.6 °F - 39.6 °F 77% 29.88 in 10.0 mi SSE 17.3 mph - N/A   Overcast
9:55 PM 45.0 °F 38.5 °F 40.6 °F 85% 29.87 in 10.0 mi SSE 13.8 mph 20.7 mph N/A   Overcast
10:15 PM 44.2 °F 37.6 °F 41.0 °F 88% 29.86 in 7.0 mi SSE 13.8 mph - N/A Rain Rain
10:35 PM 44.6 °F 38.4 °F 41.9 °F 90% 29.85 in 5.0 mi South 12.7 mph - 0.05 in Rain Heavy Rain
10:55 PM 44.6 °F 39.7 °F 41.9 °F 90% 29.84 in 7.0 mi SE 9.2 mph - 0.07 in Rain Rain
11:15 PM 44.1 °F 37.7 °F 41.5 °F 91% 29.83 in 7.0 mi South 12.7 mph - 0.05 in Rain Rain
11:35 PM 43.3 °F 35.2 °F 40.6 °F 90% 29.83 in 4.0 mi South 18.4 mph - 0.15 in Rain Rain
11:55 PM 43.7 °F 36.3 °F 39.2 °F 84% 29.82 in 3.0 mi SSE 16.1 mph - 0.20 in   Overcast